KK4F Weather Reports


time (UTC)temp
F
wind
direction
speed
knots
gust
knots
rain 1hr
in
rain 24hr
in
rain mn
in
humidity
%
barometer
mb
20260505124550 64 255 0.9 6.1 0.00 0.00 0.00 82 1018.1
20260505124044 63 248 0.9 4.3 0.00 0.00 0.00 84 1018.0
20260505123546 62 360 0.0 2.6 0.00 0.00 0.00 85 1018.0
20260505123043 61 232 0.0 2.6 0.00 0.00 0.00 87 1018.0
20260505122544 60 223 0.0 0.0 0.00 0.00 0.00 88 1017.9
20260505122041 60 226 0.0 0.0 0.00 0.00 0.00 89 1017.9
20260505121540 59 205 0.0 1.7 0.00 0.00 0.00 90 1017.9
20260505121041 58 194 0.0 1.7 0.00 0.00 0.00 91 1017.8
20260505120540 58 194 0.0 2.6 0.00 0.00 0.00 91 1017.9
20260505120048 57 193 0.0 0.0 0.00 0.00 0.00 92 1017.8
20260505115538 56 151 0.0 0.0 0.00 0.00 0.00 93 1017.8
20260505115041 56 155 0.0 0.0 0.00 0.00 0.00 93 1017.7
20260505114538 55 118 0.0 0.0 0.00 0.00 0.00 94 1017.8
20260505114038 54 77 0.0 0.0 0.00 0.00 0.00 95 1017.7
20260505113536 54 13 0.0 0.0 0.00 0.00 0.00 95 1017.7
20260505113038 53 45 0.0 0.0 0.00 0.00 0.00 95 1017.8
20260505112536 52 49 0.0 0.0 0.00 0.00 0.00 95 1017.7
20260505112036 52 62 0.0 0.0 0.00 0.00 0.00 96 1017.7
20260505111535 51 43 0.0 0.0 0.00 0.00 0.00 95 1017.6
20260505111039 51 44 0.0 0.0 0.00 0.00 0.00 95 1017.6
20260505110533 51 44 0.0 0.0 0.00 0.00 0.00 95 1017.5
20260505102030 50 44 0.0 0.0 0.00 0.00 0.00 93 1017.0
20260505101528 51 44 0.0 0.0 0.00 0.00 0.00 93 1016.9
20260505101028 51 232 0.0 0.0 0.00 0.00 0.00 93 1016.9
20260505100529 51 232 0.0 0.0 0.00 0.00 0.00 93 1016.9
20260505100027 51 232 0.0 0.0 0.00 0.00 0.00 93 1016.8
20260505095526 51 232 0.0 0.0 0.00 0.00 0.00 93 1016.9
20260505095027 51 232 0.0 0.0 0.00 0.00 0.00 93 1016.9
20260505094530 51 232 0.0 0.0 0.00 0.00 0.00 93 1016.9
20260505094025 51 232 0.0 0.0 0.00 0.00 0.00 93 1017.0
20260505093526 51 232 0.0 0.0 0.00 0.00 0.00 92 1016.9
20260505093025 51 232 0.0 0.0 0.00 0.00 0.00 93 1016.9
20260505092524 51 232 0.0 0.0 0.00 0.00 0.00 92 1016.9
20260505092023 51 232 0.0 0.0 0.00 0.00 0.00 92 1016.8
20260505091522 51 232 0.0 0.0 0.00 0.00 0.00 92 1016.7
20260505091022 51 360 0.0 0.0 0.00 0.00 0.00 92 1016.7
20260505090521 52 360 0.0 0.0 0.00 0.00 0.00 91 1016.7
20260505090020 52 252 0.0 0.0 0.00 0.00 0.00 91 1016.7
20260505085522 52 249 0.0 0.0 0.00 0.00 0.00 91 1016.8
20260505085018 52 250 0.0 0.0 0.00 0.00 0.00 91 1016.7
20260505084537 52 246 0.0 0.0 0.00 0.00 0.00 90 1016.5
20260505084017 53 247 0.0 0.0 0.00 0.00 0.00 91 1016.4
20260505083517 53 245 0.0 0.0 0.00 0.00 0.00 91 1016.4
20260505083018 53 246 0.0 0.0 0.00 0.00 0.00 91 1016.4
20260505082516 53 245 0.0 0.0 0.00 0.00 0.00 91 1016.3
20260505082016 53 246 0.0 0.0 0.00 0.00 0.00 91 1016.4
20260505081519 53 246 0.0 0.0 0.00 0.00 0.00 90 1016.3
20260505081015 53 244 0.0 0.0 0.00 0.00 0.00 90 1016.3
20260505080515 54 244 0.0 0.0 0.00 0.00 0.00 90 1016.2
20260505080013 54 244 0.0 0.0 0.00 0.00 0.00 90 1016.1
20260505075512 54 244 0.0 0.0 0.00 0.00 0.00 91 1016.0
20260505075012 54 244 0.0 0.0 0.00 0.00 0.00 90 1016.1
20260505074512 54 244 0.0 0.0 0.00 0.00 0.00 90 1016.0
20260505074012 54 244 0.0 0.0 0.00 0.00 0.00 91 1016.0
20260505073512 54 244 0.0 0.0 0.00 0.00 0.00 90 1016.0
20260505073010 54 246 0.0 0.0 0.00 0.00 0.00 89 1016.0
20260505072511 54 246 0.0 0.0 0.00 0.00 0.00 89 1016.0
20260505072012 54 246 0.0 0.0 0.00 0.00 0.00 88 1016.0
20260505071508 54 246 0.0 0.0 0.00 0.00 0.00 88 1016.0
20260505071008 54 244 0.0 0.0 0.00 0.00 0.00 88 1016.1
20260505070512 55 244 0.0 0.0 0.00 0.00 0.00 88 1016.1
20260505070008 55 245 0.0 0.0 0.00 0.00 0.00 87 1016.2
20260505065506 55 245 0.0 0.0 0.00 0.00 0.00 86 1016.1
20260505065004 55 244 0.0 0.0 0.00 0.00 0.00 86 1016.2
20260505064503 55 248 0.0 0.0 0.00 0.00 0.00 86 1016.3
20260505064004 56 248 0.0 0.0 0.00 0.00 0.00 85 1016.3
20260505063502 56 248 0.0 0.0 0.00 0.00 0.00 86 1016.3
20260505063002 56 259 0.0 0.0 0.00 0.00 0.00 85 1016.3
20260505062600 56 260 0.0 0.0 0.00 0.00 0.00 84 1016.3
20260505062501 56 257 0.0 0.0 0.00 0.00 0.00 84 1016.3
20260505062100 56 262 0.0 0.0 0.00 0.00 0.00 84 1016.4
20260505061600 56 257 0.0 0.0 0.00 0.00 0.00 84 1016.5
20260505061058 56 252 0.0 0.0 0.00 0.00 0.00 83 1016.5
20260505060559 57 280 0.0 0.0 0.00 0.00 0.00 83 1016.6
20260505060059 57 234 0.0 0.0 0.00 0.00 0.00 83 1016.6
20260505055556 57 232 0.0 0.0 0.00 0.00 0.00 82 1016.7
20260505055058 57 232 0.0 0.0 0.00 0.00 0.00 82 1016.7
20260505054554 57 234 0.0 0.0 0.00 0.00 0.00 82 1016.7
20260505054055 57 234 0.0 0.0 0.00 0.00 0.00 82 1016.7
20260505053554 57 234 0.0 0.0 0.00 0.00 0.00 81 1016.8
20260505053113 57 233 0.0 0.0 0.00 0.00 0.00 82 1016.8
20260505052551 58 233 0.0 0.0 0.00 0.00 0.00 81 1016.9
20260505052051 58 233 0.0 0.0 0.00 0.00 0.00 81 1016.8
20260505051550 58 233 0.0 0.0 0.00 0.00 0.00 81 1016.9
20260505051050 58 233 0.0 0.0 0.00 0.00 0.00 82 1016.9
20260505050549 58 232 0.0 0.0 0.00 0.00 0.00 82 1017.0
20260505041543 61 238 0.0 0.0 0.00 0.00 0.00 75 1017.0
20260505041039 61 242 0.0 0.0 0.00 0.00 0.00 75 1017.0
20260505040536 62 238 0.0 0.0 0.00 0.00 0.00 74 1017.1
20260505040037 62 238 0.0 0.0 0.00 0.00 0.00 72 1017.0
20260505035535 62 238 0.0 0.0 0.00 0.00 0.00 72 1017.0
20260505035034 63 240 0.0 0.0 0.00 0.00 0.00 71 1017.0
20260505034535 63 240 0.0 0.9 0.00 0.00 0.00 71 1017.1
20260505034036 63 240 0.0 2.6 0.00 0.00 0.00 70 1017.1
20260505033534 63 242 0.0 3.5 0.00 0.00 0.00 70 1017.0
20260505033038 63 234 0.9 3.5 0.00 0.00 0.00 70 1017.1
20260505032534 64 234 0.0 3.5 0.00 0.00 0.00 69 1017.1
20260505032033 64 224 0.0 3.5 0.00 0.00 0.00 69 1017.1
20260505031533 64 235 1.7 3.5 0.00 0.00 0.00 69 1017.1
20260505031037 64 217 1.7 5.2 0.00 0.00 0.00 68 1017.2
20260505030533 64 223 1.7 4.3 0.00 0.00 0.00 68 1017.2
20260505030033 65 209 1.7 4.3 0.00 0.00 0.00 68 1017.2
20260505025534 65 230 0.9 4.3 0.00 0.00 0.00 68 1017.2
20260505025033 65 259 0.9 5.2 0.00 0.00 0.00 68 1017.3
20260505024532 65 214 0.9 5.2 0.00 0.00 0.00 67 1017.2
20260505024032 65 201 0.9 4.3 0.00 0.00 0.00 67 1017.2
20260505023532 65 222 0.9 5.2 0.00 0.00 0.00 67 1017.2
20260505023032 65 241 1.7 5.2 0.00 0.00 0.00 66 1017.2
20260505022531 66 192 1.7 6.1 0.00 0.00 0.00 65 1017.2
20260505022031 66 225 1.7 4.3 0.00 0.00 0.00 65 1017.1
20260505021531 66 201 0.9 4.3 0.00 0.00 0.00 64 1017.1
20260505021032 66 209 0.0 3.5 0.00 0.00 0.00 63 1017.1
20260505020531 67 216 1.7 6.1 0.00 0.00 0.00 62 1017.1
20260505020030 67 219 1.7 6.1 0.00 0.00 0.00 62 1017.1
20260505015530 67 213 1.7 5.2 0.00 0.00 0.00 61 1017.0
20260505015030 67 217 1.7 5.2 0.00 0.00 0.00 61 1017.0
20260505014530 68 231 2.6 6.1 0.00 0.00 0.00 60 1017.0
20260505014030 68 207 1.7 6.1 0.00 0.00 0.00 60 1016.9
20260505013536 68 215 1.7 6.1 0.00 0.00 0.00 59 1016.9
20260505013030 68 227 1.7 7.0 0.00 0.00 0.00 59 1016.9
20260505012529 69 216 3.5 7.0 0.00 0.00 0.00 59 1016.8
20260505012031 69 207 2.6 7.0 0.00 0.00 0.00 58 1016.7
20260505011546 69 202 3.5 8.7 0.00 0.00 0.00 58 1016.7
20260505011028 69 232 3.5 8.7 0.00 0.00 0.00 57 1016.5
20260505010531 69 209 3.5 8.7 0.00 0.00 0.00 57 1016.5
20260505010027 69 213 4.3 7.8 0.00 0.00 0.00 57 1016.3
20260505005528 70 220 2.6 7.0 0.00 0.00 0.00 57 1016.3
20260505005027 70 213 2.6 7.0 0.00 0.00 0.00 56 1016.2
20260505004527 70 207 2.6 7.8 0.00 0.00 0.00 56 1016.0
20260505004026 71 189 3.5 9.6 0.00 0.00 0.00 56 1016.0
20260505003527 71 326 4.3 9.6 0.00 0.00 0.00 56 1016.0
20260505003027 71 251 2.6 8.7 0.00 0.00 0.00 56 1015.8
20260505002527 71 215 2.6 7.0 0.00 0.00 0.00 57 1015.8
20260505002027 71 202 2.6 6.1 0.00 0.00 0.00 56 1015.8
20260505001527 72 205 2.6 10.4 0.00 0.00 0.00 56 1015.7
20260505001026 72 234 4.3 12.2 0.00 0.00 0.00 55 1015.6
20260505000526 72 157 6.1 12.2 0.00 0.00 0.00 55 1015.6
20260505000036 72 207 1.7 8.7 0.00 0.00 0.00 54 1015.5
20260504235525 73 192 3.5 9.6 0.00 0.00 0.00 53 1015.4
20260504235026 73 210 3.5 9.6 0.00 0.00 0.00 51 1015.4
20260504234529 74 207 3.5 8.7 0.00 0.00 0.00 49 1015.3
20260504234024 75 230 1.7 6.1 0.00 0.00 0.00 45 1015.3
20260504233528 75 219 0.0 6.1 0.00 0.00 0.00 44 1015.1
20260504233025 75 213 0.9 8.7 0.00 0.00 0.00 43 1015.1
20260504232525 75 219 2.6 8.7 0.00 0.00 0.00 42 1015.1
20260504232024 75 219 1.7 5.2 0.00 0.00 0.00 42 1015.1
20260504231525 76 323 0.0 6.1 0.00 0.00 0.00 41 1015.1
20260504231025 76 220 0.9 7.0 0.00 0.00 0.00 41 1015.2
20260504230525 76 234 2.6 8.7 0.00 0.00 0.00 41 1015.1
20260504230024 76 202 0.9 7.0 0.00 0.00 0.00 41 1015.1
20260504225523 77 252 1.7 8.7 0.00 0.00 0.00 40 1015.1
20260504225024 77 151 1.7 8.7 0.00 0.00 0.00 40 1015.1
20260504224527 77 282 3.5 8.7 0.00 0.00 0.00 39 1015.1
20260504224025 77 209 1.7 7.0 0.00 0.00 0.00 40 1015.1
20260504223523 77 157 3.5 7.0 0.00 0.00 0.00 39 1015.2
20260504223026 77 232 3.5 8.7 0.00 0.00 0.00 39 1015.2
20260504222523 77 152 3.5 7.8 0.00 0.00 0.00 39 1015.1
20260504222024 77 192 3.5 8.7 0.00 0.00 0.00 38 1015.2
20260504221523 78 214 3.5 14.8 0.00 0.00 0.00 38 1015.2
20260504221022 78 206 5.2 14.8 0.00 0.00 0.00 38 1015.2
20260504220523 78 148 6.1 13.0 0.00 0.00 0.00 37 1015.2
20260504220022 79 207 3.5 8.7 0.00 0.00 0.00 36 1015.1
20260504215521 79 256 1.7 12.2 0.00 0.00 0.00 37 1015.2
20260504215022 80 195 2.6 8.7 0.00 0.00 0.00 35 1015.1
20260504214522 80 296 0.9 7.0 0.00 0.00 0.00 36 1015.1
20260504214021 79 184 2.6 7.0 0.00 0.00 0.00 35 1015.2
20260504213521 79 263 3.5 11.3 0.00 0.00 0.00 35 1015.1
20260504213021 80 205 4.3 11.3 0.00 0.00 0.00 37 1015.1
20260504212524 80 302 2.6 7.0 0.00 0.00 0.00 36 1015.2
20260504212020 79 194 3.5 9.6 0.00 0.00 0.00 36 1015.2
20260504211520 80 236 4.3 11.3 0.00 0.00 0.00 35 1015.2
20260504211021 79 236 2.6 11.3 0.00 0.00 0.00 37 1015.1
20260504210520 79 219 4.3 13.0 0.00 0.00 0.00 37 1015.2
20260504210021 79 210 3.5 13.0 0.00 0.00 0.00 36 1015.2
20260504205518 79 222 3.5 9.6 0.00 0.00 0.00 36 1015.1
20260504205018 79 270 6.1 9.6 0.00 0.00 0.00 36 1015.3
20260504204520 80 211 0.9 8.7 0.00 0.00 0.00 36 1015.2
20260504204018 80 197 4.3 8.7 0.00 0.00 0.00 36 1015.4
20260504203518 81 248 3.5 10.4 0.00 0.00 0.00 36 1015.4
20260504203017 80 44 0.9 7.8 0.00 0.00 0.00 35 1015.4
20260504202517 80 202 1.7 7.0 0.00 0.00 0.00 37 1015.4
20260504202018 80 222 2.6 7.0 0.00 0.00 0.00 37 1015.4
20260504201516 80 186 0.9 7.8 0.00 0.00 0.00 38 1015.3
20260504201016 80 167 4.3 9.6 0.00 0.00 0.00 36 1015.4
20260504200516 80 184 3.5 11.3 0.00 0.00 0.00 35 1015.5
20260504200015 80 198 3.5 11.3 0.00 0.00 0.00 37 1015.5
20260504195514 80 171 3.5 13.0 0.00 0.00 0.00 37 1015.5
20260504195014 80 182 1.7 7.8 0.00 0.00 0.00 38 1015.5
20260504194514 79 152 0.0 8.7 0.00 0.00 0.00 37 1015.6
20260504194013 80 200 4.3 8.7 0.00 0.00 0.00 37 1015.7
20260504193511 80 197 4.3 8.7 0.00 0.00 0.00 37 1015.8
20260504193013 80 180 1.7 12.2 0.00 0.00 0.00 36 1015.8
20260504192511 79 205 5.2 12.2 0.00 0.00 0.00 37 1015.8
20260504192010 79 192 2.6 9.6 0.00 0.00 0.00 37 1016.0
20260504191510 80 203 2.6 13.0 0.00 0.00 0.00 37 1016.0
20260504191010 80 178 7.0 13.0 0.00 0.00 0.00 36 1016.2
20260504190511 80 259 2.6 8.7 0.00 0.00 0.00 37 1016.2
20260504190008 80 200 1.7 6.1 0.00 0.00 0.00 37 1016.4
20260504185507 81 317 1.7 6.1 0.00 0.00 0.00 36 1016.5
20260504185007 80 101 0.0 7.8 0.00 0.00 0.00 38 1016.6
20260504184504 80 205 1.7 7.8 0.00 0.00 0.00 38 1016.7
20260504184008 79 271 0.9 9.6 0.00 0.00 0.00 38 1016.8
20260504183504 79 217 1.7 9.6 0.00 0.00 0.00 39 1016.9
20260504183004 79 275 0.9 7.0 0.00 0.00 0.00 38 1016.9
20260504182503 79 211 3.5 7.0 0.00 0.00 0.00 34 1017.0
20260504182002 78 213 4.3 7.0 0.00 0.00 0.00 40 1016.9
20260504181506 79 193 1.7 8.7 0.00 0.00 0.00 37 1017.1
20260504181002 79 229 0.0 6.1 0.00 0.00 0.00 38 1017.1
20260504180501 79 223 1.7 7.8 0.00 0.00 0.00 38 1017.1
20260504180100 79 229 0.9 7.8 0.00 0.00 0.00 38 1017.2
20260504175559 79 219 0.9 5.2 0.00 0.00 0.00 39 1017.2
20260504175058 78 271 0.0 7.8 0.00 0.00 0.00 36 1017.1
20260504174559 78 189 2.6 7.8 0.00 0.00 0.00 37 1017.3
20260504174059 77 211 0.9 5.2 0.00 0.00 0.00 40 1017.3
20260504173556 76 234 0.9 7.8 0.00 0.00 0.00 39 1017.3
20260504173057 76 242 1.7 7.8 0.00 0.00 0.00 40 1017.4
20260504172556 77 212 2.6 7.8 0.00 0.00 0.00 38 1017.4
20260504172056 78 209 3.5 8.7 0.00 0.00 0.00 40 1017.4
20260504171555 78 211 0.0 7.0 0.00 0.00 0.00 41 1017.4
20260504171054 77 193 1.7 7.0 0.00 0.00 0.00 40 1017.5
20260504170553 76 218 1.7 4.3 0.00 0.00 0.00 41 1017.6
20260504151039 73 304 0.9 6.1 0.00 0.00 0.00 44 1018.5
20260504150540 73 225 0.0 7.0 0.00 0.00 0.00 47 1018.5
20260504141028 69 235 0.0 5.2 0.00 0.00 0.00 60 1018.4
20260504140529 68 307 0.0 4.3 0.00 0.00 0.00 60 1018.4